When you browse on this site, cookies collect data to enhance your experience and personalize the content and advertising you see.
Visit our Privacy Policy to learn more. By continuing to use the site, you agree to this use of cookies and data.

Previsão horária em Mansoa

Hoje, 28 Setembro, Segunda-feira

Tempo Temperatura Precipitação Vento Pressão Humidade
00:00 +27°C° 0.1 mm 1 m/s 757 mmHg 91%
01:00 +27°C° 0.1 mm 1 m/s 757 mmHg 91%
02:00 +26°C° 0.1 mm 1 m/s 756 mmHg 92%
03:00 +26°C° 0 mm 1 m/s 756 mmHg 92%
04:00 +26°C° 0 mm 1 m/s 756 mmHg 92%
05:00 +24°C° 0 mm 0 m/s 756 mmHg 92%
06:00 +25°C° 0 mm 0 m/s 757 mmHg 89%
07:00 +26°C° 0 mm 0 m/s 757 mmHg 86%
08:00 +27°C° 0 mm 0 m/s 758 mmHg 83%
09:00 +28°C° 0.8 mm 0 m/s 758 mmHg 78%
10:00 +29°C° 0.8 mm 0 m/s 758 mmHg 73%
11:00 +33°C° 0.8 mm 1 m/s 758 mmHg 69%
12:00 +33°C° 0.6 mm 1 m/s 757 mmHg 68%
13:00 +33°C° 0.6 mm 1 m/s 757 mmHg 66%
14:00 +33°C° 0.6 mm 1 m/s 756 mmHg 65%
15:00 +32°C° 1.2 mm 1 m/s 756 mmHg 72%
16:00 +31°C° 1.2 mm 2 m/s 756 mmHg 78%
17:00 +29°C° 1.2 mm 2 m/s 756 mmHg 84%
18:00 +28°C° 0.2 mm 2 m/s 757 mmHg 86%
19:00 +28°C° 0.2 mm 2 m/s 757 mmHg 89%
20:00 +27°C° 0.2 mm 1 m/s 758 mmHg 91%
21:00 +27°C° 0 mm 1 m/s 758 mmHg 91%
22:00 +27°C° 0 mm 1 m/s 758 mmHg 91%
23:00 +26°C° 0 mm 1 m/s 758 mmHg 91%

Amanhã, 29 Setembro, Terça-feira

Tempo Temperatura Precipitação Vento Pressão Humidade
00:00 +26°C° 0 mm 1 m/s 758 mmHg 92%
01:00 +26°C° 0 mm 1 m/s 757 mmHg 92%
02:00 +24°C° 0 mm 0 m/s 757 mmHg 92%
03:00 +24°C° 0 mm 0 m/s 757 mmHg 93%
04:00 +23°C° 0 mm 0 m/s 757 mmHg 94%
05:00 +25°C° 0 mm 1 m/s 757 mmHg 95%
06:00 +26°C° 0 mm 1 m/s 757 mmHg 91%
07:00 +27°C° 0 mm 1 m/s 758 mmHg 87%
08:00 +28°C° 0 mm 1 m/s 758 mmHg 83%
09:00 +29°C° 0 mm 0 m/s 758 mmHg 77%
10:00 +31°C° 0 mm 0 m/s 758 mmHg 70%
11:00 +33°C° 0 mm 0 m/s 758 mmHg 64%
12:00 +33°C° 0 mm 0 m/s 757 mmHg 61%
13:00 +33°C° 0 mm 0 m/s 757 mmHg 59%
14:00 +35°C° 0 mm 1 m/s 756 mmHg 56%
15:00 +34°C° 0 mm 1 m/s 756 mmHg 62%
16:00 +33°C° 0 mm 1 m/s 756 mmHg 67%
17:00 +32°C° 0 mm 1 m/s 756 mmHg 73%
18:00 +31°C° 0.4 mm 2 m/s 756 mmHg 79%
19:00 +29°C° 0.4 mm 2 m/s 757 mmHg 84%
20:00 +28°C° 0.4 mm 2 m/s 758 mmHg 90%
21:00 +27°C° 0 mm 2 m/s 758 mmHg 91%
22:00 +27°C° 0 mm 2 m/s 758 mmHg 92%
23:00 +27°C° 0 mm 2 m/s 758 mmHg 93%

Depois de amanhã, 30 Setembro, Quarta-feira

Tempo Temperatura Precipitação Vento Pressão Humidade
00:00 +27°C° 0 mm 2 m/s 757 mmHg 93%
01:00 +27°C° 0 mm 2 m/s 757 mmHg 94%
02:00 +27°C° 0 mm 1 m/s 757 mmHg 95%
03:00 +26°C° 0 mm 1 m/s 757 mmHg 95%
04:00 +26°C° 0 mm 1 m/s 756 mmHg 96%
05:00 +26°C° 0 mm 1 m/s 756 mmHg 97%
06:00 +27°C° 0 mm 2 m/s 757 mmHg 93%
07:00 +28°C° 0 mm 2 m/s 757 mmHg 90%
08:00 +29°C° 0 mm 2 m/s 758 mmHg 87%
09:00 +30°C° 0 mm 2 m/s 758 mmHg 83%
10:00 +31°C° 0 mm 1 m/s 758 mmHg 78%
11:00 +32°C° 0 mm 1 m/s 758 mmHg 74%
12:00 +33°C° 0.8 mm 1 m/s 757 mmHg 73%
13:00 +33°C° 0.8 mm 1 m/s 757 mmHg 72%
14:00 +34°C° 0.8 mm 1 m/s 756 mmHg 70%
15:00 +32°C° 3.1 mm 1 m/s 756 mmHg 76%
16:00 +31°C° 3.1 mm 1 m/s 755 mmHg 82%
17:00 +28°C° 3.1 mm 0 m/s 755 mmHg 87%
18:00 +29°C° 1 mm 1 m/s 756 mmHg 89%
19:00 +28°C° 1 mm 1 m/s 757 mmHg 91%
20:00 +27°C° 1 mm 2 m/s 757 mmHg 93%
21:00 +27°C° 0.9 mm 2 m/s 757 mmHg 93%
22:00 +27°C° 0.9 mm 2 m/s 757 mmHg 93%
23:00 +26°C° 0.9 mm 2 m/s 757 mmHg 93%

1 Outubro, Quinta-feira

Tempo Temperatura Precipitação Vento Pressão Humidade
00:00 +26°C° 0 mm 2 m/s 757 mmHg 93%
01:00 +26°C° 0 mm 1 m/s 757 mmHg 93%
02:00 +26°C° 0 mm 1 m/s 756 mmHg 94%
03:00 +26°C° 0 mm 1 m/s 756 mmHg 94%
04:00 +26°C° 0 mm 1 m/s 756 mmHg 94%
05:00 +26°C° 0 mm 1 m/s 756 mmHg 94%
06:00 +27°C° 0 mm 2 m/s 757 mmHg 91%
07:00 +28°C° 0 mm 2 m/s 757 mmHg 88%
08:00 +29°C° 0 mm 2 m/s 757 mmHg 85%
09:00 +30°C° 0 mm 2 m/s 757 mmHg 80%
10:00 +31°C° 0 mm 3 m/s 757 mmHg 74%
11:00 +33°C° 0 mm 3 m/s 757 mmHg 69%
12:00 +34°C° 0 mm 3 m/s 757 mmHg 68%
13:00 +34°C° 0 mm 3 m/s 756 mmHg 67%
14:00 +34°C° 0 mm 3 m/s 755 mmHg 65%
15:00 +33°C° 0.1 mm 3 m/s 755 mmHg 70%
16:00 +31°C° 0.1 mm 3 m/s 755 mmHg 74%
17:00 +30°C° 0.1 mm 3 m/s 755 mmHg 78%
18:00 +29°C° 0 mm 3 m/s 755 mmHg 79%
19:00 +29°C° 0 mm 3 m/s 756 mmHg 80%
20:00 +28°C° 0 mm 3 m/s 757 mmHg 82%
21:00 +28°C° 0 mm 3 m/s 757 mmHg 84%
22:00 +27°C° 0 mm 2 m/s 757 mmHg 87%
23:00 +27°C° 0 mm 2 m/s 757 mmHg 89%

2 Outubro, Sexta-feira

Tempo Temperatura Precipitação Vento Pressão Humidade
00:00 +26°C° 0 mm 2 m/s 756 mmHg 90%
01:00 +26°C° 0 mm 2 m/s 756 mmHg 91%
02:00 +26°C° 0 mm 2 m/s 755 mmHg 92%
03:00 +26°C° 0 mm 1 m/s 755 mmHg 92%
04:00 +27°C° 0 mm 1 m/s 755 mmHg 92%
05:00 +27°C° 0 mm 1 m/s 755 mmHg 92%
06:00 +28°C° 0 mm 2 m/s 756 mmHg 88%
07:00 +29°C° 0 mm 2 m/s 756 mmHg 85%
08:00 +29°C° 0 mm 3 m/s 756 mmHg 82%
09:00 +31°C° 0 mm 3 m/s 756 mmHg 77%
10:00 +33°C° 0 mm 3 m/s 756 mmHg 72%
11:00 +34°C° 0 mm 3 m/s 756 mmHg 67%
12:00 +34°C° 0 mm 3 m/s 756 mmHg 66%
13:00 +34°C° 0 mm 3 m/s 755 mmHg 65%
14:00 +35°C° 0 mm 3 m/s 755 mmHg 64%
15:00 +34°C° 0 mm 3 m/s 754 mmHg 69%
16:00 +31°C° 0 mm 3 m/s 754 mmHg 74%
17:00 +30°C° 0 mm 4 m/s 754 mmHg 79%
18:00 +30°C° 0 mm 3 m/s 755 mmHg 81%
19:00 +29°C° 0 mm 3 m/s 755 mmHg 84%
20:00 +28°C° 0 mm 3 m/s 756 mmHg 87%
21:00 +28°C° 0 mm 3 m/s 756 mmHg 89%
22:00 +27°C° 0 mm 2 m/s 756 mmHg 91%
23:00 +27°C° 0 mm 2 m/s 756 mmHg 93%

3 Outubro, Sábado

Tempo Temperatura Precipitação Vento Pressão Humidade
00:00 +27°C° 0 mm 2 m/s 756 mmHg 94%
01:00 +27°C° 0 mm 2 m/s 756 mmHg 95%
02:00 +26°C° 0 mm 2 m/s 755 mmHg 96%
03:00 +26°C° 0 mm 2 m/s 755 mmHg 96%
04:00 +26°C° 0 mm 1 m/s 755 mmHg 97%
05:00 +26°C° 0 mm 1 m/s 755 mmHg 97%
06:00 +27°C° 0 mm 1 m/s 756 mmHg 93%
07:00 +28°C° 0 mm 1 m/s 756 mmHg 89%
08:00 +29°C° 0 mm 2 m/s 756 mmHg 85%
09:00 +30°C° 0 mm 2 m/s 756 mmHg 80%
10:00 +31°C° 0 mm 2 m/s 756 mmHg 75%
11:00 +32°C° 0 mm 2 m/s 756 mmHg 71%
12:00 +34°C° 0 mm 2 m/s 756 mmHg 68%
13:00 +34°C° 0 mm 2 m/s 755 mmHg 65%
14:00 +35°C° 0 mm 2 m/s 754 mmHg 62%
15:00 +34°C° 0 mm 2 m/s 754 mmHg 67%
16:00 +33°C° 0 mm 3 m/s 754 mmHg 72%
17:00 +31°C° 0 mm 3 m/s 754 mmHg 77%
18:00 +30°C° 0 mm 3 m/s 755 mmHg 79%
19:00 +29°C° 0 mm 3 m/s 755 mmHg 82%
20:00 +28°C° 0 mm 3 m/s 756 mmHg 85%
21:00 +27°C° 0 mm 2 m/s 756 mmHg 87%
22:00 +27°C° 0 mm 2 m/s 756 mmHg 89%
23:00 +27°C° 0 mm 2 m/s 757 mmHg 91%
Mostrar mais